Time,TemperatureF,DewpointF,PressureIn,WindDirection,WindDirectionDegrees,WindSpeedMPH,WindSpeedGustMPH,Humidity,HourlyPrecipIn,Conditions,Clouds,dailyrainin,SoftwareType,DateUTC
2013-10-05 00:03:00,64.7,61.1,28.98,SSE,158,0.0,2.6,88,0.00,,,0.00,WUHU216HW,2013-10-05 05:03:00,
2013-10-05 00:08:00,64.7,61.1,28.98,SSE,158,0.0,0.0,88,0.00,,,0.00,WUHU216HW,2013-10-05 05:08:00,
2013-10-05 00:13:00,64.5,60.9,28.99,SW,225,0.0,0.0,88,0.00,,,0.00,WUHU216HW,2013-10-05 05:13:00,
2013-10-05 00:18:00,64.4,60.8,28.98,SW,225,0.0,0.0,88,0.00,,,0.00,WUHU216HW,2013-10-05 05:18:00,
2013-10-05 00:23:00,64.0,60.1,28.97,West,270,0.0,0.0,87,0.00,,,0.00,WUHU216HW,2013-10-05 05:23:00,
2013-10-05 00:28:00,62.9,58.3,28.97,WNW,293,0.0,6.0,85,0.00,,,0.00,WUHU216HW,2013-10-05 05:28:00,
2013-10-05 00:33:00,62.4,57.4,28.99,NW,315,0.0,6.0,84,0.00,,,0.00,WUHU216HW,2013-10-05 05:33:00,
2013-10-05 00:38:00,61.7,56.4,28.99,NNW,338,0.0,2.0,83,0.00,,,0.00,WUHU216HW,2013-10-05 05:38:00,
2013-10-05 00:43:00,60.9,55.8,28.99,NNW,338,1.3,1.3,83,0.00,,,0.00,WUHU216HW,2013-10-05 05:43:00,
2013-10-05 00:48:00,60.6,55.1,28.98,WNW,293,0.0,1.3,82,0.00,,,0.00,WUHU216HW,2013-10-05 05:48:00,
2013-10-05 00:53:00,60.4,54.9,28.97,NW,315,4.6,4.6,82,0.00,,,0.00,WUHU216HW,2013-10-05 05:53:00,
2013-10-05 00:58:00,59.9,54.4,28.97,WNW,293,0.6,4.6,82,0.00,,,0.00,WUHU216HW,2013-10-05 05:58:00,
2013-10-05 01:03:00,59.7,54.2,28.97,WNW,293,4.2,4.6,82,0.00,,,0.00,WUHU216HW,2013-10-05 06:03:00,
2013-10-05 01:08:00,59.5,54.3,28.97,WNW,293,0.0,4.2,83,0.00,,,0.00,WUHU216HW,2013-10-05 06:08:00,
2013-10-05 01:13:00,59.0,53.8,28.98,WNW,293,0.0,4.2,83,0.00,,,0.00,WUHU216HW,2013-10-05 06:13:00,
2013-10-05 01:18:00,58.8,53.6,28.96,WNW,293,1.3,5.1,83,0.00,,,0.00,WUHU216HW,2013-10-05 06:18:00,
2013-10-05 01:23:00,58.8,53.6,28.99,WNW,293,0.0,5.1,83,0.00,,,0.00,WUHU216HW,2013-10-05 06:23:00,
2013-10-05 01:28:00,58.2,53.4,28.99,WNW,293,0.0,1.3,84,0.00,,,0.00,WUHU216HW,2013-10-05 06:28:00,
2013-10-05 01:33:00,58.1,53.6,29.00,WNW,293,0.0,0.0,85,0.00,,,0.00,WUHU216HW,2013-10-05 06:33:00,
2013-10-05 01:38:00,57.9,53.4,28.99,WNW,293,0.0,0.0,85,0.00,,,0.00,WUHU216HW,2013-10-05 06:38:00,
2013-10-05 01:43:00,57.9,52.4,28.99,NW,315,0.0,0.0,82,0.00,,,0.00,WUHU216HW,2013-10-05 06:43:00,
2013-10-05 01:48:00,57.7,51.2,28.99,WNW,293,0.0,2.6,79,0.00,,,0.00,WUHU216HW,2013-10-05 06:48:00,
2013-10-05 01:53:00,57.3,50.1,28.99,WNW,293,0.0,2.6,77,0.00,,,0.00,WUHU216HW,2013-10-05 06:53:00,
2013-10-05 01:58:00,57.0,50.1,29.00,WNW,293,0.0,0.0,78,0.00,,,0.00,WUHU216HW,2013-10-05 06:58:00,
2013-10-05 02:03:00,56.6,49.4,29.00,WNW,293,0.0,0.0,77,0.00,,,0.00,WUHU216HW,2013-10-05 07:03:00,
2013-10-05 02:08:00,56.4,49.2,29.01,NW,315,8.9,8.9,77,0.00,,,0.00,WUHU216HW,2013-10-05 07:08:00,
2013-10-05 02:13:00,56.1,49.2,29.01,NW,315,1.7,8.9,78,0.00,,,0.00,WUHU216HW,2013-10-05 07:13:00,
2013-10-05 02:18:00,56.1,48.9,29.01,WNW,293,0.0,5.1,77,0.00,,,0.00,WUHU216HW,2013-10-05 07:18:00,
2013-10-05 02:23:00,55.9,48.4,29.01,NW,315,0.0,1.7,76,0.00,,,0.00,WUHU216HW,2013-10-05 07:23:00,
2013-10-05 02:29:00,55.7,47.9,29.00,WNW,293,2.2,4.0,75,0.00,,,0.00,WUHU216HW,2013-10-05 07:29:00,
2013-10-05 02:34:00,55.5,47.0,29.00,NNW,338,0.0,8.2,73,0.00,,,0.00,WUHU216HW,2013-10-05 07:34:00,
2013-10-05 02:39:00,55.5,47.0,29.02,WNW,293,0.0,8.2,73,0.00,,,0.00,WUHU216HW,2013-10-05 07:39:00,
2013-10-05 02:44:00,55.4,46.5,29.01,WNW,293,4.9,4.9,72,0.00,,,0.00,WUHU216HW,2013-10-05 07:44:00,
2013-10-05 02:49:00,55.4,46.5,29.00,WNW,293,0.0,4.9,72,0.00,,,0.00,WUHU216HW,2013-10-05 07:49:00,
2013-10-05 02:54:00,55.2,46.3,29.00,WNW,293,0.0,0.0,72,0.00,,,0.00,WUHU216HW,2013-10-05 07:54:00,
2013-10-05 02:59:00,55.0,46.1,29.01,WNW,293,0.0,0.0,72,0.00,,,0.00,WUHU216HW,2013-10-05 07:59:00,
2013-10-05 03:04:00,54.8,46.7,29.00,WNW,293,0.0,0.0,74,0.00,,,0.00,WUHU216HW,2013-10-05 08:04:00,
2013-10-05 03:09:00,54.6,46.1,29.00,NW,315,0.0,1.5,73,0.00,,,0.00,WUHU216HW,2013-10-05 08:09:00,
2013-10-05 03:14:00,54.6,46.1,29.01,NW,315,0.0,1.5,73,0.00,,,0.00,WUHU216HW,2013-10-05 08:14:00,
2013-10-05 03:19:00,54.6,45.8,29.02,NW,315,0.0,0.0,72,0.00,,,0.00,WUHU216HW,2013-10-05 08:19:00,
2013-10-05 03:25:00,54.3,46.1,29.03,NW,315,0.0,0.0,74,0.00,,,0.00,WUHU216HW,2013-10-05 08:25:00,
2013-10-05 03:29:00,53.7,46.3,29.05,NW,315,0.0,0.0,76,0.00,,,0.00,WUHU216HW,2013-10-05 08:29:00,
2013-10-05 03:35:00,52.8,45.8,29.04,NW,315,0.0,0.0,77,0.00,,,0.00,WUHU216HW,2013-10-05 08:35:00,
2013-10-05 03:40:00,52.3,45.6,29.04,NW,315,0.0,0.0,78,0.00,,,0.00,WUHU216HW,2013-10-05 08:40:00,
2013-10-05 03:45:00,51.9,45.6,29.03,NW,315,0.0,0.0,79,0.00,,,0.00,WUHU216HW,2013-10-05 08:45:00,
2013-10-05 03:50:00,51.8,46.1,29.03,NW,315,0.0,0.0,81,0.00,,,0.00,WUHU216HW,2013-10-05 08:50:00,
2013-10-05 03:55:00,51.8,46.1,29.03,NW,315,0.0,0.0,81,0.00,,,0.00,WUHU216HW,2013-10-05 08:55:00,
2013-10-05 04:00:00,51.6,46.2,29.02,NW,315,0.0,0.0,82,0.00,,,0.00,WUHU216HW,2013-10-05 09:00:00,
2013-10-05 04:05:00,51.6,46.5,29.04,NW,315,0.0,0.0,83,0.00,,,0.00,WUHU216HW,2013-10-05 09:05:00,
2013-10-05 04:10:00,51.6,46.2,29.02,NW,315,0.0,2.9,82,0.00,,,0.00,WUHU216HW,2013-10-05 09:10:00,
2013-10-05 04:15:00,51.0,45.4,29.03,NW,315,0.0,2.9,81,0.00,,,0.00,WUHU216HW,2013-10-05 09:15:00,
2013-10-05 04:20:00,51.0,45.4,29.02,NW,315,0.0,6.0,81,0.00,,,0.00,WUHU216HW,2013-10-05 09:20:00,
2013-10-05 04:26:00,51.0,45.4,29.02,NW,315,0.0,6.0,81,0.00,,,0.00,WUHU216HW,2013-10-05 09:26:00,
2013-10-05 04:31:00,51.0,45.1,29.01,NW,315,0.0,1.7,80,0.00,,,0.00,WUHU216HW,2013-10-05 09:31:00,
2013-10-05 04:36:00,51.0,45.1,29.00,NW,315,0.0,1.7,80,0.00,,,0.00,WUHU216HW,2013-10-05 09:36:00,
2013-10-05 04:41:00,51.0,45.1,28.99,NW,315,2.9,2.9,80,0.00,,,0.00,WUHU216HW,2013-10-05 09:41:00,
2013-10-05 04:46:00,51.0,44.7,28.99,NW,315,0.0,2.9,79,0.00,,,0.00,WUHU216HW,2013-10-05 09:46:00,
2013-10-05 04:51:00,51.0,44.7,28.99,NW,315,0.0,2.9,79,0.00,,,0.00,WUHU216HW,2013-10-05 09:51:00,
2013-10-05 04:56:00,51.0,44.4,28.99,NNW,338,5.1,5.1,78,0.00,,,0.00,WUHU216HW,2013-10-05 09:56:00,
2013-10-05 05:01:00,51.0,44.1,29.00,NW,315,0.0,5.1,77,0.00,,,0.00,WUHU216HW,2013-10-05 10:01:00,
2013-10-05 05:06:00,51.0,44.1,29.00,NW,315,0.0,5.1,77,0.00,,,0.00,WUHU216HW,2013-10-05 10:06:00,
2013-10-05 05:11:00,50.7,43.7,29.00,NW,315,0.0,5.5,77,0.00,,,0.00,WUHU216HW,2013-10-05 10:11:00,
2013-10-05 05:16:00,50.7,43.4,29.01,NW,315,0.0,5.5,76,0.00,,,0.00,WUHU216HW,2013-10-05 10:16:00,
2013-10-05 05:21:00,50.5,43.2,29.01,NW,315,0.0,0.0,76,0.00,,,0.00,WUHU216HW,2013-10-05 10:21:00,
2013-10-05 05:26:00,50.1,42.8,29.01,NW,315,0.0,4.4,76,0.00,,,0.00,WUHU216HW,2013-10-05 10:26:00,
2013-10-05 05:32:00,49.8,42.5,29.02,NW,315,0.8,4.4,76,0.00,,,0.00,WUHU216HW,2013-10-05 10:32:00,
2013-10-05 05:37:00,49.8,42.5,29.02,NW,315,0.0,3.5,76,0.00,,,0.00,WUHU216HW,2013-10-05 10:37:00,
2013-10-05 05:42:00,49.2,41.9,29.02,NW,315,3.1,3.8,76,0.00,,,0.00,WUHU216HW,2013-10-05 10:42:00,
2013-10-05 05:46:00,49.2,41.9,29.02,NW,315,0.0,3.8,76,0.00,,,0.00,WUHU216HW,2013-10-05 10:46:00,
2013-10-05 05:52:00,48.9,41.6,29.02,NNW,338,0.0,3.1,76,0.00,,,0.00,WUHU216HW,2013-10-05 10:52:00,
2013-10-05 05:57:00,48.7,41.0,29.03,NNW,338,2.4,7.8,75,0.00,,,0.00,WUHU216HW,2013-10-05 10:57:00,
2013-10-05 06:02:00,48.7,41.0,29.03,West,270,0.0,7.8,75,0.00,,,0.00,WUHU216HW,2013-10-05 11:02:00,
2013-10-05 06:07:00,48.5,40.9,29.04,NW,315,0.0,3.5,75,0.00,,,0.00,WUHU216HW,2013-10-05 11:07:00,
2013-10-05 06:12:00,48.3,40.7,29.04,NW,315,0.0,3.5,75,0.00,,,0.00,WUHU216HW,2013-10-05 11:12:00,
2013-10-05 06:17:00,48.3,40.7,29.04,NW,315,0.0,0.0,75,0.00,,,0.00,WUHU216HW,2013-10-05 11:17:00,
2013-10-05 06:22:00,48.0,40.3,29.05,NW,315,0.0,0.0,75,0.00,,,0.00,WUHU216HW,2013-10-05 11:22:00,
2013-10-05 06:27:00,48.0,40.7,29.05,NW,315,0.0,0.0,76,0.00,,,0.00,WUHU216HW,2013-10-05 11:27:00,
2013-10-05 06:32:00,47.8,40.5,29.04,NW,315,0.0,2.2,76,0.00,,,0.00,WUHU216HW,2013-10-05 11:32:00,
2013-10-05 06:37:00,47.6,40.4,29.04,NW,315,3.8,4.4,76,0.00,,,0.00,WUHU216HW,2013-10-05 11:37:00,
2013-10-05 06:42:00,47.4,39.9,29.03,NW,315,5.5,5.5,75,0.00,,,0.00,WUHU216HW,2013-10-05 11:42:00,
2013-10-05 06:47:00,47.4,39.9,29.04,NW,315,0.0,5.5,75,0.00,,,0.00,WUHU216HW,2013-10-05 11:47:00,
2013-10-05 06:52:00,47.3,39.3,29.04,West,270,0.0,4.4,74,0.00,,,0.00,WUHU216HW,2013-10-05 11:52:00,
2013-10-05 06:57:00,47.1,38.8,29.05,NNW,338,0.0,0.0,73,0.00,,,0.00,WUHU216HW,2013-10-05 11:57:00,
2013-10-05 07:02:00,47.1,38.5,29.06,NNW,338,0.0,3.5,72,0.00,,,0.00,WUHU216HW,2013-10-05 12:02:00,
2013-10-05 07:07:00,46.9,38.3,29.06,NNW,338,2.4,3.5,72,0.00,,,0.00,WUHU216HW,2013-10-05 12:07:00,
2013-10-05 07:12:00,46.9,38.0,29.05,NW,315,0.4,4.0,71,0.00,,,0.00,WUHU216HW,2013-10-05 12:12:00,
2013-10-05 07:18:00,46.7,37.5,29.05,NW,315,0.0,4.0,70,0.00,,,0.00,WUHU216HW,2013-10-05 12:18:00,
2013-10-05 07:23:00,46.7,37.5,29.06,NW,315,0.0,2.9,70,0.00,,,0.00,WUHU216HW,2013-10-05 12:23:00,
2013-10-05 07:28:00,46.5,37.3,29.06,WNW,293,0.0,0.0,70,0.00,,,0.00,WUHU216HW,2013-10-05 12:28:00,
2013-10-05 07:33:00,46.5,37.3,29.06,NW,315,0.0,2.4,70,0.00,,,0.00,WUHU216HW,2013-10-05 12:33:00,
2013-10-05 07:38:00,46.5,37.3,29.07,NW,315,0.0,2.4,70,0.00,,,0.00,WUHU216HW,2013-10-05 12:38:00,
2013-10-05 07:43:00,46.5,37.3,29.06,NW,315,0.0,0.0,70,0.00,,,0.00,WUHU216HW,2013-10-05 12:43:00,
2013-10-05 07:47:00,46.5,37.3,29.06,NW,315,0.0,3.3,70,0.00,,,0.00,WUHU216HW,2013-10-05 12:47:00,
2013-10-05 07:52:00,46.5,37.3,29.06,WNW,293,0.0,3.3,70,0.00,,,0.00,WUHU216HW,2013-10-05 12:52:00,
2013-10-05 07:57:00,46.7,37.5,29.06,NW,315,0.0,2.4,70,0.00,,,0.00,WUHU216HW,2013-10-05 12:57:00,
2013-10-05 08:03:00,46.9,37.7,29.05,NW,315,5.1,5.1,70,0.00,,,0.00,WUHU216HW,2013-10-05 13:03:00,
2013-10-05 08:08:00,47.1,37.4,29.05,NW,315,0.0,5.1,69,0.00,,,0.00,WUHU216HW,2013-10-05 13:08:00,
2013-10-05 08:13:00,47.1,37.4,29.06,NW,315,0.0,5.1,69,0.00,,,0.00,WUHU216HW,2013-10-05 13:13:00,
2013-10-05 08:18:00,47.1,37.0,29.06,West,270,3.8,3.8,68,0.00,,,0.00,WUHU216HW,2013-10-05 13:18:00,
2013-10-05 08:23:00,47.1,37.4,29.05,West,270,0.0,3.8,69,0.00,,,0.00,WUHU216HW,2013-10-05 13:23:00,
2013-10-05 08:28:00,47.3,37.6,29.06,West,270,3.5,3.8,69,0.00,,,0.00,WUHU216HW,2013-10-05 13:28:00,
2013-10-05 08:33:00,47.4,37.7,29.06,NW,315,0.0,6.0,69,0.00,,,0.00,WUHU216HW,2013-10-05 13:33:00,
2013-10-05 08:38:00,47.8,38.1,29.06,NW,315,0.8,6.0,69,0.00,,,0.00,WUHU216HW,2013-10-05 13:38:00,
2013-10-05 08:43:00,48.0,38.2,29.06,NW,315,0.0,0.8,69,0.00,,,0.00,WUHU216HW,2013-10-05 13:43:00,
2013-10-05 08:48:00,48.5,38.8,29.06,NW,315,0.0,5.3,69,0.00,,,0.00,WUHU216HW,2013-10-05 13:48:00,
2013-10-05 08:53:00,48.7,38.6,29.06,NW,315,0.0,5.3,68,0.00,,,0.00,WUHU216HW,2013-10-05 13:53:00,
2013-10-05 08:58:00,49.1,38.9,29.08,NNW,338,3.5,3.5,68,0.00,,,0.00,WUHU216HW,2013-10-05 13:58:00,
2013-10-05 09:03:00,49.1,38.5,29.07,NNW,338,3.5,3.5,67,0.00,,,0.00,WUHU216HW,2013-10-05 14:03:00,
2013-10-05 09:08:00,48.9,38.3,29.07,North,0,4.4,4.4,67,0.00,,,0.00,WUHU216HW,2013-10-05 14:08:00,
2013-10-05 09:13:00,48.7,37.8,29.08,NW,315,0.8,4.4,66,0.00,,,0.00,WUHU216HW,2013-10-05 14:13:00,
2013-10-05 09:18:00,48.5,37.2,29.08,NNW,338,0.0,6.4,65,0.00,,,0.00,WUHU216HW,2013-10-05 14:18:00,
2013-10-05 09:23:00,48.7,37.8,29.08,NNW,338,6.2,6.4,66,0.00,,,0.00,WUHU216HW,2013-10-05 14:23:00,
2013-10-05 09:28:00,48.9,38.0,29.07,NW,315,0.0,6.2,66,0.00,,,0.00,WUHU216HW,2013-10-05 14:28:00,
2013-10-05 09:33:00,49.2,37.9,29.08,NW,315,0.0,2.0,65,0.00,,,0.00,WUHU216HW,2013-10-05 14:33:00,
2013-10-05 09:38:00,49.2,37.5,29.09,West,270,2.6,2.6,64,0.00,,,0.00,WUHU216HW,2013-10-05 14:38:00,
2013-10-05 09:43:00,49.6,38.3,29.09,NNW,338,0.0,2.6,65,0.00,,,0.00,WUHU216HW,2013-10-05 14:43:00,
2013-10-05 09:48:00,49.6,37.5,29.08,NW,315,2.4,3.1,63,0.00,,,0.00,WUHU216HW,2013-10-05 14:48:00,
2013-10-05 09:53:00,49.8,37.6,29.09,WNW,293,0.0,3.1,63,0.00,,,0.00,WUHU216HW,2013-10-05 14:53:00,
2013-10-05 09:58:00,50.5,38.3,29.10,WNW,293,0.0,3.8,63,0.00,,,0.00,WUHU216HW,2013-10-05 14:58:00,
2013-10-05 10:03:00,50.5,37.9,29.09,NW,315,3.5,3.8,62,0.00,,,0.00,WUHU216HW,2013-10-05 15:03:00,
2013-10-05 10:08:00,50.7,38.1,29.11,NW,315,0.0,3.5,62,0.00,,,0.00,WUHU216HW,2013-10-05 15:08:00,
2013-10-05 10:14:00,50.7,37.7,29.10,WNW,293,0.0,6.4,61,0.00,,,0.00,WUHU216HW,2013-10-05 15:14:00,
2013-10-05 10:19:00,51.0,38.0,29.11,NW,315,0.0,6.4,61,0.00,,,0.00,WUHU216HW,2013-10-05 15:19:00,
2013-10-05 10:24:00,51.6,38.1,29.10,NW,315,0.0,4.9,60,0.00,,,0.00,WUHU216HW,2013-10-05 15:24:00,
2013-10-05 10:29:00,52.3,38.3,29.11,NW,315,0.4,4.9,59,0.00,,,0.00,WUHU216HW,2013-10-05 15:29:00,
2013-10-05 10:34:00,52.7,38.7,29.10,NNW,338,0.0,4.0,59,0.00,,,0.00,WUHU216HW,2013-10-05 15:34:00,
2013-10-05 10:39:00,52.5,38.1,29.08,NW,315,2.4,6.2,58,0.00,,,0.00,WUHU216HW,2013-10-05 15:39:00,
2013-10-05 10:44:00,52.3,37.9,29.09,NW,315,0.6,6.2,58,0.00,,,0.00,WUHU216HW,2013-10-05 15:44:00,
2013-10-05 10:49:00,52.7,38.2,29.09,NNW,338,0.0,5.8,58,0.00,,,0.00,WUHU216HW,2013-10-05 15:49:00,
2013-10-05 10:54:00,53.4,38.9,29.08,NNW,338,6.0,6.0,58,0.00,,,0.00,WUHU216HW,2013-10-05 15:54:00,
2013-10-05 10:59:00,53.2,39.2,29.08,NNW,338,0.0,10.2,59,0.00,,,0.00,WUHU216HW,2013-10-05 15:59:00,
2013-10-05 11:04:00,53.7,39.7,29.09,NNW,338,0.0,10.2,59,0.00,,,0.00,WUHU216HW,2013-10-05 16:04:00,
2013-10-05 11:09:00,54.6,40.6,29.09,NW,315,3.5,5.3,59,0.00,,,0.00,WUHU216HW,2013-10-05 16:09:00,
2013-10-05 11:14:00,56.1,41.0,29.09,NE,45,0.0,5.3,57,0.00,,,0.00,WUHU216HW,2013-10-05 16:14:00,
2013-10-05 11:21:00,56.4,41.3,29.09,NE,45,0.0,5.3,57,0.00,,,0.00,WUHU216HW,2013-10-05 16:21:00,
2013-10-05 11:26:00,55.7,40.2,29.09,NW,315,0.0,4.6,56,0.00,,,0.00,WUHU216HW,2013-10-05 16:26:00,
2013-10-05 11:31:00,56.3,40.7,29.09,NW,315,0.0,4.6,56,0.00,,,0.00,WUHU216HW,2013-10-05 16:31:00,
2013-10-05 11:36:00,56.8,41.2,29.09,NW,315,2.9,4.0,56,0.00,,,0.00,WUHU216HW,2013-10-05 16:36:00,
2013-10-05 11:41:00,58.1,42.4,29.09,NW,315,0.0,2.9,56,0.00,,,0.00,WUHU216HW,2013-10-05 16:41:00,
2013-10-05 11:46:00,58.1,41.5,29.08,NNW,338,0.0,5.5,54,0.00,,,0.00,WUHU216HW,2013-10-05 16:46:00,
2013-10-05 11:51:00,58.4,41.8,29.09,South,180,0.0,5.5,54,0.00,,,0.00,WUHU216HW,2013-10-05 16:51:00,
2013-10-05 11:56:00,58.8,41.7,29.09,NNW,338,0.0,2.0,53,0.00,,,0.00,WUHU216HW,2013-10-05 16:56:00,
2013-10-05 12:06:00,59.3,42.1,29.09,NW,315,0.0,2.0,53,0.00,,,0.00,WUHU216HW,2013-10-05 17:06:00,
2013-10-05 12:11:00,61.1,42.4,29.09,NW,315,0.0,4.6,50,0.00,,,0.00,WUHU216HW,2013-10-05 17:11:00,
2013-10-05 12:16:00,61.8,42.4,29.09,SSE,158,2.9,3.3,49,0.00,,,0.00,WUHU216HW,2013-10-05 17:16:00,
2013-10-05 12:21:00,61.7,41.7,29.09,NNW,338,0.0,7.6,48,0.00,,,0.00,WUHU216HW,2013-10-05 17:21:00,
2013-10-05 12:26:00,61.7,41.1,29.08,SW,225,0.0,7.6,47,0.00,,,0.00,WUHU216HW,2013-10-05 17:26:00,
2013-10-05 12:31:00,61.5,42.1,29.08,WNW,293,0.0,10.0,49,0.00,,,0.00,WUHU216HW,2013-10-05 17:31:00,
2013-10-05 12:36:00,61.8,42.4,29.09,WNW,293,0.0,10.0,49,0.00,,,0.00,WUHU216HW,2013-10-05 17:36:00,
2013-10-05 12:41:00,62.2,42.2,29.09,WNW,293,0.0,0.0,48,0.00,,,0.00,WUHU216HW,2013-10-05 17:41:00,
2013-10-05 12:46:00,62.2,41.6,29.09,SSE,158,0.0,0.0,47,0.00,,,0.00,WUHU216HW,2013-10-05 17:46:00,
2013-10-05 12:51:00,62.4,41.8,29.09,SW,225,0.0,0.0,47,0.00,,,0.00,WUHU216HW,2013-10-05 17:51:00,
2013-10-05 12:56:00,62.2,40.4,29.09,SE,135,0.0,5.5,45,0.00,,,0.00,WUHU216HW,2013-10-05 17:56:00,
2013-10-05 13:01:00,61.8,40.7,29.09,WNW,293,6.4,6.4,46,0.00,,,0.00,WUHU216HW,2013-10-05 18:01:00,
2013-10-05 13:06:00,61.7,41.1,29.09,NNW,338,0.0,6.4,47,0.00,,,0.00,WUHU216HW,2013-10-05 18:06:00,
2013-10-05 13:11:00,62.0,40.9,29.09,South,180,0.0,0.0,46,0.00,,,0.00,WUHU216HW,2013-10-05 18:11:00,
2013-10-05 13:16:00,62.4,40.6,29.08,ENE,68,0.0,0.0,45,0.00,,,0.00,WUHU216HW,2013-10-05 18:16:00,
2013-10-05 13:21:00,62.4,41.2,29.08,ENE,68,0.0,0.0,46,0.00,,,0.00,WUHU216HW,2013-10-05 18:21:00,
2013-10-05 13:26:00,62.4,41.2,29.08,WSW,248,0.0,0.0,46,0.00,,,0.00,WUHU216HW,2013-10-05 18:26:00,
2013-10-05 13:31:00,62.0,40.3,29.07,WSW,248,0.0,0.0,45,0.00,,,0.00,WUHU216HW,2013-10-05 18:31:00,
2013-10-05 13:37:00,62.4,41.2,29.07,WNW,293,0.0,8.7,46,0.00,,,0.00,WUHU216HW,2013-10-05 18:37:00,
2013-10-05 13:40:00,62.4,41.2,29.06,SSE,158,0.0,8.7,46,0.00,,,0.00,WUHU216HW,2013-10-05 18:40:00,
2013-10-05 13:53:00,62.6,41.3,29.06,NNW,338,5.1,8.7,46,0.00,,,0.00,WUHU216HW,2013-10-05 18:53:00,
2013-10-05 13:58:00,62.9,42.8,29.05,NNW,338,4.6,4.6,48,0.00,,,0.00,WUHU216HW,2013-10-05 18:58:00,
2013-10-05 14:03:00,62.9,41.7,29.05,North,0,0.0,4.6,46,0.00,,,0.00,WUHU216HW,2013-10-05 19:03:00,
2013-10-05 14:08:00,63.3,42.6,29.05,West,270,0.0,4.6,47,0.00,,,0.00,WUHU216HW,2013-10-05 19:08:00,
2013-10-05 14:13:00,63.3,41.4,29.04,West,270,0.0,0.0,45,0.00,,,0.00,WUHU216HW,2013-10-05 19:13:00,
2013-10-05 14:18:00,63.3,40.8,29.04,NNE,23,0.0,0.0,44,0.00,,,0.00,WUHU216HW,2013-10-05 19:18:00,
2013-10-05 14:23:00,63.3,41.4,29.04,NNW,338,2.9,2.9,45,0.00,,,0.00,WUHU216HW,2013-10-05 19:23:00,
2013-10-05 14:28:00,63.1,41.8,29.04,WNW,293,5.1,5.1,46,0.00,,,0.00,WUHU216HW,2013-10-05 19:28:00,
2013-10-05 14:33:00,62.9,41.1,29.04,WSW,248,0.0,5.1,45,0.00,,,0.00,WUHU216HW,2013-10-05 19:33:00,
2013-10-05 14:38:00,62.9,41.1,29.03,ENE,68,0.0,5.1,45,0.00,,,0.00,WUHU216HW,2013-10-05 19:38:00,
2013-10-05 14:43:00,62.9,41.1,29.03,NE,45,0.0,3.5,45,0.00,,,0.00,WUHU216HW,2013-10-05 19:43:00,
2013-10-05 14:48:00,62.9,41.1,29.03,NNW,338,0.0,3.5,45,0.00,,,0.00,WUHU216HW,2013-10-05 19:48:00,
2013-10-05 14:53:00,63.3,42.0,29.02,North,0,0.0,2.9,46,0.00,,,0.00,WUHU216HW,2013-10-05 19:53:00,
2013-10-05 14:58:00,63.5,41.0,29.02,WNW,293,0.0,0.0,44,0.00,,,0.00,WUHU216HW,2013-10-05 19:58:00,
2013-10-05 15:03:00,63.6,41.7,29.02,WNW,293,6.7,6.7,45,0.00,,,0.00,WUHU216HW,2013-10-05 20:03:00,
2013-10-05 15:08:00,63.8,41.3,29.02,NW,315,0.0,6.7,44,0.00,,,0.00,WUHU216HW,2013-10-05 20:08:00,
2013-10-05 15:13:00,64.0,42.1,29.02,NW,315,6.7,6.7,45,0.00,,,0.00,WUHU216HW,2013-10-05 20:13:00,
2013-10-05 15:18:00,63.6,41.2,29.02,SSE,158,0.0,6.7,44,0.00,,,0.00,WUHU216HW,2013-10-05 20:18:00,
2013-10-05 15:23:00,63.1,40.1,29.02,WSW,248,0.0,6.7,43,0.00,,,0.00,WUHU216HW,2013-10-05 20:23:00,
2013-10-05 15:28:00,63.1,39.5,29.02,WSW,248,0.0,9.1,42,0.00,,,0.00,WUHU216HW,2013-10-05 20:28:00,
2013-10-05 15:33:00,63.1,40.1,29.01,ENE,68,0.0,9.1,43,0.00,,,0.00,WUHU216HW,2013-10-05 20:33:00,
2013-10-05 15:38:00,63.6,41.2,29.01,WSW,248,7.1,7.1,44,0.00,,,0.00,WUHU216HW,2013-10-05 20:38:00,
2013-10-05 15:43:00,63.8,40.2,29.01,WSW,248,1.3,7.1,42,0.00,,,0.00,WUHU216HW,2013-10-05 20:43:00,
2013-10-05 15:49:00,63.6,40.0,29.01,WSW,248,0.0,7.1,42,0.00,,,0.00,WUHU216HW,2013-10-05 20:49:00,
2013-10-05 15:54:00,63.1,40.1,29.01,WSW,248,2.0,2.0,43,0.00,,,0.00,WUHU216HW,2013-10-05 20:54:00,
2013-10-05 15:59:00,63.1,40.1,29.01,WSW,248,0.0,2.0,43,0.00,,,0.00,WUHU216HW,2013-10-05 20:59:00,
2013-10-05 16:04:00,63.1,40.1,29.01,WSW,248,0.0,2.0,43,0.00,,,0.00,WUHU216HW,2013-10-05 21:04:00,
2013-10-05 16:09:00,62.6,39.0,29.01,WSW,248,0.0,0.0,42,0.00,,,0.00,WUHU216HW,2013-10-05 21:09:00,
2013-10-05 16:14:00,62.4,39.5,29.01,WSW,248,0.0,0.0,43,0.00,,,0.00,WUHU216HW,2013-10-05 21:14:00,
2013-10-05 16:19:00,62.0,39.1,29.01,WSW,248,0.0,0.0,43,0.00,,,0.00,WUHU216HW,2013-10-05 21:19:00,
2013-10-05 16:24:00,61.7,38.8,29.01,WSW,248,3.3,6.9,43,0.00,,,0.00,WUHU216HW,2013-10-05 21:24:00,
2013-10-05 16:29:00,61.5,39.2,29.00,WSW,248,0.0,6.9,44,0.00,,,0.00,WUHU216HW,2013-10-05 21:29:00,
2013-10-05 16:34:00,61.3,39.1,29.01,WSW,248,0.0,3.3,44,0.00,,,0.00,WUHU216HW,2013-10-05 21:34:00,
2013-10-05 16:39:00,61.1,38.9,29.00,WSW,248,0.0,0.0,44,0.00,,,0.00,WUHU216HW,2013-10-05 21:39:00,
2013-10-05 16:44:00,60.6,38.4,29.00,WSW,248,0.0,0.0,44,0.00,,,0.00,WUHU216HW,2013-10-05 21:44:00,
2013-10-05 16:49:00,60.0,38.5,29.00,WSW,248,0.0,0.0,45,0.00,,,0.00,WUHU216HW,2013-10-05 21:49:00,
2013-10-05 16:54:00,59.7,38.2,29.00,WSW,248,0.0,6.7,45,0.00,,,0.00,WUHU216HW,2013-10-05 21:54:00,
2013-10-05 16:59:00,59.3,38.4,29.00,WSW,248,0.0,6.7,46,0.00,,,0.00,WUHU216HW,2013-10-05 21:59:00,
2013-10-05 17:04:00,58.8,37.9,29.00,WSW,248,0.0,0.0,46,0.00,,,0.00,WUHU216HW,2013-10-05 22:04:00,
2013-10-05 17:09:00,58.6,37.8,29.00,WSW,248,6.9,6.9,46,0.00,,,0.00,WUHU216HW,2013-10-05 22:09:00,
2013-10-05 17:14:00,58.2,38.0,29.00,ESE,113,0.0,6.9,47,0.00,,,0.00,WUHU216HW,2013-10-05 22:14:00,
2013-10-05 17:19:00,57.9,37.7,29.00,SSE,158,0.0,6.9,47,0.00,,,0.00,WUHU216HW,2013-10-05 22:19:00,
2013-10-05 17:24:00,57.3,37.8,29.00,SSE,158,0.0,4.4,48,0.00,,,0.00,WUHU216HW,2013-10-05 22:24:00,
2013-10-05 17:29:00,57.0,38.0,29.00,SSE,158,0.0,0.0,49,0.00,,,0.00,WUHU216HW,2013-10-05 22:29:00,
2013-10-05 17:34:00,57.0,38.0,29.00,West,270,0.0,0.0,49,0.00,,,0.00,WUHU216HW,2013-10-05 22:34:00,
2013-10-05 17:39:00,56.4,37.5,28.99,South,180,0.0,0.0,49,0.00,,,0.00,WUHU216HW,2013-10-05 22:39:00,
2013-10-05 17:44:00,56.4,37.5,28.99,South,180,0.0,0.0,49,0.00,,,0.00,WUHU216HW,2013-10-05 22:44:00,
2013-10-05 17:49:00,56.4,37.5,29.00,South,180,0.0,0.0,49,0.00,,,0.00,WUHU216HW,2013-10-05 22:49:00,
2013-10-05 17:54:00,56.4,37.5,28.99,South,180,0.0,0.0,49,0.00,,,0.00,WUHU216HW,2013-10-05 22:54:00,
2013-10-05 17:59:00,56.4,37.5,28.99,South,180,0.0,0.0,49,0.00,,,0.00,WUHU216HW,2013-10-05 22:59:00,
2013-10-05 18:08:00,55.4,37.9,28.99,SSE,158,0.0,0.0,52,0.00,,,0.00,WUHU216HW,2013-10-05 23:08:00,
2013-10-05 18:13:00,55.2,37.8,28.99,SSE,158,0.0,0.0,52,0.00,,,0.00,WUHU216HW,2013-10-05 23:13:00,
2013-10-05 18:18:00,55.0,38.1,28.99,SSE,158,0.0,0.0,53,0.00,,,0.00,WUHU216HW,2013-10-05 23:18:00,
2013-10-05 18:23:00,54.6,37.7,28.99,SSE,158,0.0,0.0,53,0.00,,,0.00,WUHU216HW,2013-10-05 23:23:00,
2013-10-05 18:28:00,54.5,38.1,28.99,SSE,158,0.0,0.0,54,0.00,,,0.00,WUHU216HW,2013-10-05 23:28:00,
2013-10-05 18:33:00,54.5,38.1,28.99,SSE,158,0.0,0.0,54,0.00,,,0.00,WUHU216HW,2013-10-05 23:33:00,
2013-10-05 18:38:00,54.5,38.5,28.99,South,180,0.0,0.0,55,0.00,,,0.00,WUHU216HW,2013-10-05 23:38:00,
2013-10-05 18:43:00,54.5,38.5,28.99,South,180,0.0,0.0,55,0.00,,,0.00,WUHU216HW,2013-10-05 23:43:00,
2013-10-05 18:48:00,53.6,37.7,28.99,South,180,0.0,0.0,55,0.00,,,0.00,WUHU216HW,2013-10-05 23:48:00,
2013-10-05 18:53:00,53.6,37.7,28.99,South,180,0.0,0.0,55,0.00,,,0.00,WUHU216HW,2013-10-05 23:53:00,
2013-10-05 18:58:00,53.6,37.7,28.99,South,180,0.0,0.0,55,0.00,,,0.00,WUHU216HW,2013-10-05 23:58:00,
2013-10-05 19:03:00,52.1,37.4,28.99,South,180,0.0,0.0,58,0.00,,,0.00,WUHU216HW,2013-10-06 00:03:00,
2013-10-05 19:08:00,51.4,37.0,28.99,South,180,0.0,0.0,58,0.00,,,0.00,WUHU216HW,2013-10-06 00:08:00,
2013-10-05 19:13:00,50.7,36.8,28.99,South,180,0.0,0.0,59,0.00,,,0.00,WUHU216HW,2013-10-06 00:13:00,
2013-10-05 19:18:00,50.7,37.7,28.99,South,180,0.0,0.0,61,0.00,,,0.00,WUHU216HW,2013-10-06 00:18:00,
2013-10-05 19:23:00,49.8,37.2,28.99,South,180,0.0,0.0,62,0.00,,,0.00,WUHU216HW,2013-10-06 00:23:00,
2013-10-05 19:28:00,49.2,37.1,28.99,South,180,0.0,0.0,63,0.00,,,0.00,WUHU216HW,2013-10-06 00:28:00,
2013-10-05 19:34:00,49.1,37.0,28.99,South,180,0.0,0.0,63,0.00,,,0.00,WUHU216HW,2013-10-06 00:34:00,
2013-10-05 19:39:00,48.5,36.8,28.99,South,180,0.0,0.0,64,0.00,,,0.00,WUHU216HW,2013-10-06 00:39:00,
2013-10-05 19:44:00,48.3,37.1,28.99,South,180,0.0,0.0,65,0.00,,,0.00,WUHU216HW,2013-10-06 00:44:00,
2013-10-05 19:49:00,47.8,36.9,28.99,South,180,0.0,0.0,67,0.00,,,0.00,WUHU216HW,2013-10-06 00:49:00,
2013-10-05 19:54:00,47.4,37.0,28.99,South,180,0.0,0.0,67,0.00,,,0.00,WUHU216HW,2013-10-06 00:54:00,
2013-10-05 19:59:00,47.3,36.8,28.99,South,180,0.0,0.0,67,0.00,,,0.00,WUHU216HW,2013-10-06 00:59:00,
2013-10-05 20:04:00,47.1,37.0,28.99,South,180,0.0,0.0,68,0.00,,,0.00,WUHU216HW,2013-10-06 01:04:00,
2013-10-05 20:09:00,46.9,37.3,28.99,South,180,0.0,0.0,69,0.00,,,0.00,WUHU216HW,2013-10-06 01:09:00,
2013-10-05 20:14:00,46.7,37.1,28.99,South,180,0.0,0.0,69,0.00,,,0.00,WUHU216HW,2013-10-06 01:14:00,
2013-10-05 20:19:00,46.5,37.5,28.99,South,180,0.0,0.0,70,0.00,,,0.00,WUHU216HW,2013-10-06 01:19:00,
2013-10-05 20:24:00,46.5,37.3,29.00,South,180,0.0,0.0,70,0.00,,,0.00,WUHU216HW,2013-10-06 01:24:00,
2013-10-05 20:29:00,46.5,37.3,28.99,South,180,0.0,0.0,70,0.00,,,0.00,WUHU216HW,2013-10-06 01:29:00,
2013-10-05 20:34:00,46.2,37.0,29.00,South,180,0.0,0.0,70,0.00,,,0.00,WUHU216HW,2013-10-06 01:34:00,
2013-10-05 20:39:00,46.2,37.3,29.00,South,180,0.0,0.0,71,0.00,,,0.00,WUHU216HW,2013-10-06 01:39:00,
2013-10-05 20:44:00,46.2,37.3,29.00,South,180,0.0,0.0,71,0.00,,,0.00,WUHU216HW,2013-10-06 01:44:00,
2013-10-05 20:49:00,46.0,37.2,29.00,South,180,0.0,0.0,71,0.00,,,0.00,WUHU216HW,2013-10-06 01:49:00,
2013-10-05 20:55:00,45.6,36.8,29.00,South,180,0.0,0.0,71,0.00,,,0.00,WUHU216HW,2013-10-06 01:55:00,
2013-10-05 21:00:00,45.6,36.8,29.00,South,180,0.0,0.0,71,0.00,,,0.00,WUHU216HW,2013-10-06 02:00:00,
2013-10-05 21:05:00,45.3,36.4,29.00,South,180,0.0,0.0,71,0.00,,,0.00,WUHU216HW,2013-10-06 02:05:00,
2013-10-05 21:10:00,45.3,36.4,29.00,South,180,0.0,0.0,71,0.00,,,0.00,WUHU216HW,2013-10-06 02:10:00,
2013-10-05 21:15:00,45.3,36.4,29.00,South,180,0.0,0.0,71,0.00,,,0.00,WUHU216HW,2013-10-06 02:15:00,
2013-10-05 21:20:00,45.1,37.3,29.01,South,180,0.0,0.0,74,0.00,,,0.00,WUHU216HW,2013-10-06 02:20:00,
2013-10-05 21:25:00,45.5,38.0,29.01,South,180,0.0,0.0,75,0.00,,,0.00,WUHU216HW,2013-10-06 02:25:00,
2013-10-05 21:30:00,46.5,38.4,29.00,West,270,0.0,0.0,73,0.00,,,0.00,WUHU216HW,2013-10-06 02:30:00,
2013-10-05 21:35:00,47.4,38.8,29.01,WSW,248,0.0,0.0,72,0.00,,,0.00,WUHU216HW,2013-10-06 02:35:00,
2013-10-05 21:40:00,48.0,38.6,29.00,WSW,248,0.0,0.0,70,0.00,,,0.00,WUHU216HW,2013-10-06 02:40:00,
2013-10-05 21:45:00,48.3,38.6,29.00,WSW,248,0.0,0.0,69,0.00,,,0.00,WUHU216HW,2013-10-06 02:45:00,
2013-10-05 21:50:00,48.3,38.6,29.01,WSW,248,0.0,0.0,69,0.00,,,0.00,WUHU216HW,2013-10-06 02:50:00,
2013-10-05 21:55:00,48.2,38.0,29.01,WSW,248,0.0,0.0,68,0.00,,,0.00,WUHU216HW,2013-10-06 02:55:00,
2013-10-05 22:00:00,48.0,37.9,29.00,WSW,248,0.0,0.0,68,0.00,,,0.00,WUHU216HW,2013-10-06 03:00:00,
2013-10-05 22:05:00,47.6,37.5,29.00,WSW,248,0.0,0.0,68,0.00,,,0.00,WUHU216HW,2013-10-06 03:05:00,
2013-10-05 22:10:00,47.6,37.9,29.00,WSW,248,0.0,0.0,69,0.00,,,0.00,WUHU216HW,2013-10-06 03:10:00,
2013-10-05 22:15:00,46.9,37.3,29.00,WSW,248,0.0,0.0,69,0.00,,,0.00,WUHU216HW,2013-10-06 03:15:00,
2013-10-05 22:20:00,46.7,37.1,29.00,WSW,248,0.0,0.0,69,0.00,,,0.00,WUHU216HW,2013-10-06 03:20:00,
2013-10-05 22:25:00,46.5,37.3,29.00,WSW,248,0.0,0.0,70,0.00,,,0.00,WUHU216HW,2013-10-06 03:25:00,
2013-10-05 22:30:00,45.8,37.0,29.00,WSW,248,0.0,0.0,71,0.00,,,0.00,WUHU216HW,2013-10-06 03:30:00,
2013-10-05 22:35:00,45.3,36.6,29.00,WSW,248,0.0,0.0,71,0.00,,,0.00,WUHU216HW,2013-10-06 03:35:00,
2013-10-05 22:40:00,45.3,36.8,29.00,WSW,248,0.0,0.0,72,0.00,,,0.00,WUHU216HW,2013-10-06 03:40:00,
2013-10-05 22:45:00,44.9,36.4,29.00,WSW,248,0.0,0.0,72,0.00,,,0.00,WUHU216HW,2013-10-06 03:45:00,
2013-10-05 22:50:00,44.7,36.2,29.00,WSW,248,0.0,0.0,73,0.00,,,0.00,WUHU216HW,2013-10-06 03:50:00,
2013-10-05 22:55:00,44.4,36.2,29.00,WSW,248,0.0,0.0,73,0.00,,,0.00,WUHU216HW,2013-10-06 03:55:00,
2013-10-05 23:00:00,44.2,36.1,29.00,WSW,248,0.0,0.0,73,0.00,,,0.00,WUHU216HW,2013-10-06 04:00:00,
2013-10-05 23:01:00,44.2,36.1,29.00,WSW,248,0.0,0.0,73,0.00,,,0.00,WUHU216HW,2013-10-06 04:01:00,
2013-10-05 23:02:00,43.8,35.7,29.00,WSW,248,0.0,0.0,73,0.00,,,0.00,WUHU216HW,2013-10-06 04:02:00,
2013-10-05 23:03:00,43.8,35.7,28.99,WSW,248,0.0,0.0,73,0.00,,,0.00,WUHU216HW,2013-10-06 04:03:00,
2013-10-05 23:09:00,43.7,35.9,28.99,WSW,248,0.0,0.0,74,0.00,,,0.00,WUHU216HW,2013-10-06 04:09:00,
2013-10-05 23:14:00,43.5,35.7,28.99,WSW,248,0.0,0.0,74,0.00,,,0.00,WUHU216HW,2013-10-06 04:14:00,
2013-10-05 23:19:00,43.5,35.7,28.99,WSW,248,0.0,0.0,74,0.00,,,0.00,WUHU216HW,2013-10-06 04:19:00,
2013-10-05 23:24:00,43.5,35.7,28.99,WSW,248,0.0,0.0,74,0.00,,,0.00,WUHU216HW,2013-10-06 04:24:00,
2013-10-05 23:29:00,43.5,35.7,28.99,WSW,248,0.0,0.0,74,0.00,,,0.00,WUHU216HW,2013-10-06 04:29:00,
2013-10-05 23:34:00,42.6,35.5,28.99,WSW,248,0.0,0.0,76,0.00,,,0.00,WUHU216HW,2013-10-06 04:34:00,
2013-10-05 23:39:00,42.6,35.8,28.99,WSW,248,0.0,0.0,77,0.00,,,0.00,WUHU216HW,2013-10-06 04:39:00,
2013-10-05 23:44:00,42.6,35.8,28.99,WSW,248,0.0,0.0,77,0.00,,,0.00,WUHU216HW,2013-10-06 04:44:00,
2013-10-05 23:49:00,42.6,36.2,28.99,WSW,248,0.0,0.0,78,0.00,,,0.00,WUHU216HW,2013-10-06 04:49:00,
2013-10-05 23:54:00,42.6,36.2,28.99,WSW,248,0.0,0.0,78,0.00,,,0.00,WUHU216HW,2013-10-06 04:54:00,
2013-10-05 23:59:00,42.9,36.5,28.99,WSW,248,0.0,0.0,78,0.00,,,0.00,WUHU216HW,2013-10-06 04:59:00,